Year,Month,Day,Hour,Minute,Value (Times are PST for temperature in C)
2010,03,24,00,00,4.30
2010,03,24,00,01,4.30
2010,03,24,00,02,4.30
2010,03,24,00,03,4.30
2010,03,24,00,04,4.30
2010,03,24,00,05,4.30
2010,03,24,00,06,4.30
2010,03,24,00,07,4.30
2010,03,24,00,08,4.30
2010,03,24,00,09,4.30
2010,03,24,00,10,4.30
2010,03,24,00,11,4.30
2010,03,24,00,12,4.30
2010,03,24,00,13,4.30
2010,03,24,00,14,4.30
2010,03,24,00,15,4.30
2010,03,24,00,16,4.30
2010,03,24,00,17,4.30
2010,03,24,00,18,4.30
2010,03,24,00,19,4.30
2010,03,24,00,20,4.30
2010,03,24,00,21,4.30
2010,03,24,00,22,4.30
2010,03,24,00,23,4.30
2010,03,24,00,24,4.30
2010,03,24,00,25,4.30
2010,03,24,00,26,4.30
2010,03,24,00,27,4.30
2010,03,24,00,28,4.30
2010,03,24,00,29,4.30
2010,03,24,00,30,4.30
2010,03,24,00,31,4.30
2010,03,24,00,32,4.30
2010,03,24,00,33,4.30
2010,03,24,00,34,4.30
2010,03,24,00,35,4.20
2010,03,24,00,36,4.20
2010,03,24,00,37,4.20
2010,03,24,00,38,4.30
2010,03,24,00,39,4.30
2010,03,24,00,40,4.30
2010,03,24,00,41,4.30
2010,03,24,00,42,4.30
2010,03,24,00,43,4.30
2010,03,24,00,44,4.30
2010,03,24,00,45,4.30
2010,03,24,00,46,4.30
2010,03,24,00,47,4.30
2010,03,24,00,48,4.30
2010,03,24,00,49,4.30
2010,03,24,00,50,4.30
2010,03,24,00,51,4.30
2010,03,24,00,52,4.30
2010,03,24,00,53,4.20
2010,03,24,00,54,4.20
2010,03,24,00,55,4.20
2010,03,24,00,56,4.20
2010,03,24,00,57,4.20
2010,03,24,00,58,4.20
2010,03,24,00,59,4.20
2010,03,24,01,00,4.20
2010,03,24,01,01,4.10
2010,03,24,01,02,4.10
2010,03,24,01,03,4.10
2010,03,24,01,04,4.10
2010,03,24,01,05,4.10
2010,03,24,01,06,4.10
2010,03,24,01,07,4.10
2010,03,24,01,08,4.10
2010,03,24,01,09,4.10
2010,03,24,01,10,4.10
2010,03,24,01,11,4.10
2010,03,24,01,12,4.20
2010,03,24,01,13,4.20
2010,03,24,01,14,4.20
2010,03,24,01,15,4.20
2010,03,24,01,16,4.20
2010,03,24,01,17,4.20
2010,03,24,01,18,4.20
2010,03,24,01,19,4.20
2010,03,24,01,20,4.20
2010,03,24,01,21,4.20
2010,03,24,01,22,4.20
2010,03,24,01,23,4.20
2010,03,24,01,24,4.20
2010,03,24,01,25,4.20
2010,03,24,01,26,4.20
2010,03,24,01,27,4.20
2010,03,24,01,28,4.20
2010,03,24,01,29,4.20
2010,03,24,01,30,4.20
2010,03,24,01,31,4.10
2010,03,24,01,32,4.10
2010,03,24,01,33,4.10
2010,03,24,01,34,4.10
2010,03,24,01,35,4.10
2010,03,24,01,36,4.10
2010,03,24,01,37,4.10
2010,03,24,01,38,4.10
2010,03,24,01,39,4.10
2010,03,24,01,40,4.00
2010,03,24,01,41,4.00
2010,03,24,01,42,4.00
2010,03,24,01,43,4.00
2010,03,24,01,44,3.90
2010,03,24,01,45,3.90
2010,03,24,01,46,3.90
2010,03,24,01,47,3.90
2010,03,24,01,48,4.00
2010,03,24,01,49,4.00
2010,03,24,01,50,4.00
2010,03,24,01,51,4.00
2010,03,24,01,52,4.00
2010,03,24,01,53,4.00
2010,03,24,01,54,4.10
2010,03,24,01,55,4.10
2010,03,24,01,56,4.10
2010,03,24,01,57,4.20
2010,03,24,01,58,4.20
2010,03,24,01,59,4.20
2010,03,24,02,00,4.30
2010,03,24,02,01,4.30
2010,03,24,02,02,4.40
2010,03,24,02,03,4.50
2010,03,24,02,04,4.50
2010,03,24,02,05,4.60
2010,03,24,02,06,4.70
2010,03,24,02,07,4.80
2010,03,24,02,08,4.90
2010,03,24,02,09,4.90
2010,03,24,02,10,5.00
2010,03,24,02,11,5.00
2010,03,24,02,12,5.10
2010,03,24,02,13,5.10
2010,03,24,02,14,5.10
2010,03,24,02,15,5.10
2010,03,24,02,16,5.00
2010,03,24,02,17,5.00
2010,03,24,02,18,5.00
2010,03,24,02,19,4.90
2010,03,24,02,20,4.90
2010,03,24,02,21,4.80
2010,03,24,02,22,4.80
2010,03,24,02,23,4.80
2010,03,24,02,24,4.70
2010,03,24,02,25,4.70
2010,03,24,02,26,4.60
2010,03,24,02,27,4.60
2010,03,24,02,28,4.60
2010,03,24,02,29,4.60
2010,03,24,02,30,4.60
2010,03,24,02,31,4.50
2010,03,24,02,32,4.50
2010,03,24,02,33,4.40
2010,03,24,02,34,4.40
2010,03,24,02,35,4.40
2010,03,24,02,36,4.40
2010,03,24,02,37,4.40
2010,03,24,02,38,4.40
2010,03,24,02,39,4.40
2010,03,24,02,40,4.40
2010,03,24,02,41,4.40
2010,03,24,02,42,4.40
2010,03,24,02,43,4.40
2010,03,24,02,44,4.40
2010,03,24,02,45,4.40
2010,03,24,02,46,4.40
2010,03,24,02,47,4.40
2010,03,24,02,48,4.30
2010,03,24,02,49,4.30
2010,03,24,02,50,4.30
2010,03,24,02,51,4.30
2010,03,24,02,52,4.30
2010,03,24,02,53,4.30
2010,03,24,02,54,4.30
2010,03,24,02,55,4.30
2010,03,24,02,56,4.30
2010,03,24,02,57,4.30
2010,03,24,02,58,4.20
2010,03,24,02,59,4.20
2010,03,24,03,00,4.20
2010,03,24,03,01,4.20
2010,03,24,03,02,4.20
2010,03,24,03,03,4.10
2010,03,24,03,04,4.10
2010,03,24,03,05,4.10
2010,03,24,03,06,4.10
2010,03,24,03,07,4.10
2010,03,24,03,08,4.10
2010,03,24,03,09,4.10
2010,03,24,03,10,4.10
2010,03,24,03,11,4.10
2010,03,24,03,12,4.10
2010,03,24,03,13,4.10
2010,03,24,03,14,4.10
2010,03,24,03,15,4.10
2010,03,24,03,16,4.10
2010,03,24,03,17,4.10
2010,03,24,03,18,4.10
2010,03,24,03,19,4.10
2010,03,24,03,20,4.10
2010,03,24,03,21,4.10
2010,03,24,03,22,4.10
2010,03,24,03,23,4.00
2010,03,24,03,24,4.00
2010,03,24,03,25,4.00
2010,03,24,03,26,4.00
2010,03,24,03,27,4.00
2010,03,24,03,28,4.00
2010,03,24,03,29,4.00
2010,03,24,03,30,4.00
2010,03,24,03,31,3.90
2010,03,24,03,32,3.90
2010,03,24,03,33,3.90
2010,03,24,03,34,3.90
2010,03,24,03,35,3.90
2010,03,24,03,36,3.90
2010,03,24,03,37,3.90
2010,03,24,03,38,3.90
2010,03,24,03,39,4.00
2010,03,24,03,40,4.00
2010,03,24,03,41,4.00
2010,03,24,03,42,4.10
2010,03,24,03,43,4.10
2010,03,24,03,44,4.10
2010,03,24,03,45,4.20
2010,03,24,03,46,4.20
2010,03,24,03,47,4.20
2010,03,24,03,48,4.30
2010,03,24,03,49,4.30
2010,03,24,03,50,4.30
2010,03,24,03,51,4.40
2010,03,24,03,52,4.40
2010,03,24,03,53,4.40
2010,03,24,03,54,4.40
2010,03,24,03,55,4.40
2010,03,24,03,56,4.40
2010,03,24,03,57,4.40
2010,03,24,03,58,4.40
2010,03,24,03,59,4.40
2010,03,24,04,00,4.40
2010,03,24,04,01,4.40
2010,03,24,04,02,4.40
2010,03,24,04,03,4.40
2010,03,24,04,06,4.40
2010,03,24,04,07,4.40
2010,03,24,04,08,4.40
2010,03,24,04,09,4.40
2010,03,24,04,10,4.40
2010,03,24,04,11,4.40
2010,03,24,04,12,4.40
2010,03,24,04,13,4.40
2010,03,24,04,14,4.40
2010,03,24,04,15,4.50
2010,03,24,04,16,4.40
2010,03,24,04,17,4.50
2010,03,24,04,18,4.50
2010,03,24,04,19,4.50
2010,03,24,04,20,4.50
2010,03,24,04,21,4.50
2010,03,24,04,22,4.50
2010,03,24,04,23,4.50
2010,03,24,04,24,4.50
2010,03,24,04,25,4.50
2010,03,24,04,26,4.50
2010,03,24,04,27,4.50
2010,03,24,04,28,4.50
2010,03,24,04,29,4.50
2010,03,24,04,30,4.50
2010,03,24,04,31,4.50
2010,03,24,04,32,4.50
2010,03,24,04,33,4.60
2010,03,24,04,34,4.50
2010,03,24,04,35,4.50
2010,03,24,04,36,4.50
2010,03,24,04,37,4.50
2010,03,24,04,38,4.50
2010,03,24,04,39,4.50
2010,03,24,04,40,4.50
2010,03,24,04,41,4.50
2010,03,24,04,42,4.40
2010,03,24,04,43,4.40
2010,03,24,04,44,4.40
2010,03,24,04,45,4.40
2010,03,24,04,46,4.40
2010,03,24,04,47,4.30
2010,03,24,04,48,4.30
2010,03,24,04,49,4.30
2010,03,24,04,50,4.30
2010,03,24,04,51,4.30
2010,03,24,04,52,4.30
2010,03,24,04,53,4.30
2010,03,24,04,54,4.30
2010,03,24,04,55,4.30
2010,03,24,04,56,4.30
2010,03,24,04,57,4.20
2010,03,24,04,58,4.20
2010,03,24,04,59,4.20
2010,03,24,05,00,4.20
2010,03,24,05,01,4.20
2010,03,24,05,02,4.20
2010,03,24,05,03,4.20
2010,03,24,05,04,4.20
2010,03,24,05,05,4.20
2010,03,24,05,06,4.10
2010,03,24,05,07,4.10
2010,03,24,05,08,4.10
2010,03,24,05,09,4.10
2010,03,24,05,10,4.10
2010,03,24,05,11,4.10
2010,03,24,05,12,4.10
2010,03,24,05,13,4.00
2010,03,24,05,14,4.00
2010,03,24,05,15,4.00
2010,03,24,05,16,4.00
2010,03,24,05,17,3.90
2010,03,24,05,18,4.00
2010,03,24,05,19,4.00
2010,03,24,05,20,3.90
2010,03,24,05,21,3.90
2010,03,24,05,22,3.90
2010,03,24,05,23,3.90
2010,03,24,05,24,3.90
2010,03,24,05,25,3.90
2010,03,24,05,26,4.00
2010,03,24,05,27,4.00
2010,03,24,05,28,4.00
2010,03,24,05,29,4.00
2010,03,24,05,30,4.00
2010,03,24,05,31,4.00
2010,03,24,05,32,4.00
2010,03,24,05,33,4.00
2010,03,24,05,34,4.00
2010,03,24,05,35,4.00
2010,03,24,05,36,4.00
2010,03,24,05,37,4.00
2010,03,24,05,38,4.00
2010,03,24,05,39,4.00
2010,03,24,05,40,4.00
2010,03,24,05,41,4.00
2010,03,24,05,42,4.10
2010,03,24,05,43,4.10
2010,03,24,05,44,4.00
2010,03,24,05,45,4.00
2010,03,24,05,46,4.00
2010,03,24,05,47,4.00
2010,03,24,05,48,4.00
2010,03,24,05,49,4.10
2010,03,24,05,50,4.10
2010,03,24,05,51,4.10
2010,03,24,05,52,4.00
2010,03,24,05,53,4.00
2010,03,24,05,54,4.00
2010,03,24,05,55,4.00
2010,03,24,05,56,4.00
2010,03,24,05,57,4.00
2010,03,24,05,58,4.00
2010,03,24,05,59,3.90
2010,03,24,06,00,3.90
2010,03,24,06,01,3.90
2010,03,24,06,02,3.90
2010,03,24,06,03,3.90
2010,03,24,06,04,4.00
2010,03,24,06,05,4.00
2010,03,24,06,06,4.00
2010,03,24,06,07,4.00
2010,03,24,06,08,4.10
2010,03,24,06,09,4.10
2010,03,24,06,10,4.10
2010,03,24,06,11,4.10
2010,03,24,06,12,4.10
2010,03,24,06,13,4.10
2010,03,24,06,14,4.10
2010,03,24,06,15,4.10
2010,03,24,06,16,4.10
2010,03,24,06,17,4.10
2010,03,24,06,18,4.20
2010,03,24,06,19,4.20
2010,03,24,06,20,4.30
2010,03,24,06,21,4.30
2010,03,24,06,22,4.40
2010,03,24,06,23,4.40
2010,03,24,06,24,4.40
2010,03,24,06,25,4.40
2010,03,24,06,26,4.50
2010,03,24,06,27,4.50
2010,03,24,06,28,4.50
2010,03,24,06,29,4.50
2010,03,24,06,30,4.50
2010,03,24,06,31,4.50
2010,03,24,06,32,4.50
2010,03,24,06,33,4.50
2010,03,24,06,34,4.60
2010,03,24,06,35,4.60
2010,03,24,06,36,4.60
2010,03,24,06,37,4.60
2010,03,24,06,38,4.60
2010,03,24,06,39,4.60
2010,03,24,06,40,4.60
2010,03,24,06,41,4.60
2010,03,24,06,42,4.60
2010,03,24,06,43,4.60
2010,03,24,06,44,4.60
2010,03,24,06,45,4.60
2010,03,24,06,46,4.60
2010,03,24,06,47,4.60
2010,03,24,06,48,4.60
2010,03,24,06,49,4.60
2010,03,24,06,50,4.60
2010,03,24,06,51,4.60
2010,03,24,06,52,4.60
2010,03,24,06,53,4.50
2010,03,24,06,54,4.50
2010,03,24,06,55,4.50
2010,03,24,06,56,4.50
2010,03,24,06,57,4.50
2010,03,24,06,58,4.50
2010,03,24,06,59,4.50
2010,03,24,07,00,4.50
2010,03,24,07,01,4.40
2010,03,24,07,02,4.40
2010,03,24,07,03,4.40
2010,03,24,07,04,4.40
2010,03,24,07,05,4.40
2010,03,24,07,06,4.50
2010,03,24,07,07,4.50
2010,03,24,07,08,4.50
2010,03,24,07,09,4.50
2010,03,24,07,10,4.50
2010,03,24,07,11,4.50
2010,03,24,07,12,4.50
2010,03,24,07,13,4.50
2010,03,24,07,14,4.50
2010,03,24,07,15,4.50
2010,03,24,07,16,4.60
2010,03,24,07,17,4.60
2010,03,24,07,18,4.60
2010,03,24,07,19,4.60
2010,03,24,07,20,4.70
2010,03,24,07,21,4.70
2010,03,24,07,22,4.70
2010,03,24,07,23,4.70
2010,03,24,07,24,4.70
2010,03,24,07,25,4.80
2010,03,24,07,26,4.80
2010,03,24,07,27,4.80
2010,03,24,07,28,4.80
2010,03,24,07,29,4.80
2010,03,24,07,30,4.80
2010,03,24,07,31,4.80
2010,03,24,07,32,4.80
2010,03,24,07,33,4.80
2010,03,24,07,34,4.80
2010,03,24,07,35,4.80
2010,03,24,07,36,4.80
2010,03,24,07,37,4.80
2010,03,24,07,38,4.80
2010,03,24,07,39,4.80
2010,03,24,07,40,4.70
2010,03,24,07,41,4.70
2010,03,24,07,42,4.70
2010,03,24,07,43,4.70
2010,03,24,07,44,4.70
2010,03,24,07,45,4.70
2010,03,24,07,46,4.70
2010,03,24,07,47,4.70
2010,03,24,07,48,4.70
2010,03,24,07,49,4.70
2010,03,24,07,50,4.80
2010,03,24,07,51,4.80
2010,03,24,07,52,4.80
2010,03,24,07,53,4.80
2010,03,24,07,54,4.80
2010,03,24,07,55,4.80
2010,03,24,07,56,4.80
2010,03,24,07,57,4.80
2010,03,24,07,58,4.80
2010,03,24,07,59,4.80
2010,03,24,08,00,4.80
2010,03,24,08,01,4.80
2010,03,24,08,02,4.80
2010,03,24,08,03,4.80
2010,03,24,08,04,4.80
2010,03,24,08,05,4.80
2010,03,24,08,06,4.80
2010,03,24,08,07,4.80
2010,03,24,08,08,4.80
2010,03,24,08,09,4.80
2010,03,24,08,10,4.80
2010,03,24,08,11,4.80
2010,03,24,08,12,4.80
2010,03,24,08,13,4.80
2010,03,24,08,14,4.80
2010,03,24,08,15,4.80
2010,03,24,08,16,4.80
2010,03,24,08,17,4.80
2010,03,24,08,18,4.80
2010,03,24,08,19,4.80
2010,03,24,08,20,4.80
2010,03,24,08,21,4.80
2010,03,24,08,22,4.80
2010,03,24,08,23,4.80
2010,03,24,08,24,4.80
2010,03,24,08,25,4.80
2010,03,24,08,26,4.80
2010,03,24,08,27,4.80
2010,03,24,08,28,4.80
2010,03,24,08,29,4.80
2010,03,24,08,30,4.80
2010,03,24,08,31,4.80
2010,03,24,08,32,4.90
2010,03,24,08,33,4.90
2010,03,24,08,34,4.90
2010,03,24,08,35,4.90
2010,03,24,08,36,4.90
2010,03,24,08,37,4.90
2010,03,24,08,38,4.90
2010,03,24,08,39,5.00
2010,03,24,08,40,5.00
2010,03,24,08,41,5.10
2010,03,24,08,42,5.10
2010,03,24,08,43,5.10
2010,03,24,08,44,5.10
2010,03,24,08,45,5.20
2010,03,24,08,46,5.20
2010,03,24,08,47,5.20
2010,03,24,08,48,5.20
2010,03,24,08,49,5.20
2010,03,24,08,50,5.30
2010,03,24,08,51,5.30
2010,03,24,08,52,5.30
2010,03,24,08,53,5.30
2010,03,24,08,54,5.40
2010,03,24,08,55,5.40
2010,03,24,08,56,5.40
2010,03,24,08,57,5.40
2010,03,24,08,58,5.50
2010,03,24,08,59,5.50
2010,03,24,09,00,5.50
2010,03,24,09,01,5.60
2010,03,24,09,02,5.60
2010,03,24,09,03,5.60
2010,03,24,09,04,5.70
2010,03,24,09,05,5.70
2010,03,24,09,06,5.70
2010,03,24,09,07,5.80
2010,03,24,09,08,5.80
2010,03,24,09,09,5.90
2010,03,24,09,10,5.90
2010,03,24,09,11,5.90
2010,03,24,09,12,6.00
2010,03,24,09,13,6.00
2010,03,24,09,14,6.10
2010,03,24,09,15,6.10
2010,03,24,09,16,6.10
2010,03,24,09,17,6.10
2010,03,24,09,18,6.10
2010,03,24,09,19,6.20
2010,03,24,09,20,6.20
2010,03,24,09,21,6.20
2010,03,24,09,22,6.20
2010,03,24,09,23,6.20
2010,03,24,09,24,6.20
2010,03,24,09,25,6.30
2010,03,24,09,26,6.30
2010,03,24,09,27,6.30
2010,03,24,09,28,6.30
2010,03,24,09,29,6.40
2010,03,24,09,30,6.40
2010,03,24,09,31,6.40
2010,03,24,09,32,6.50
2010,03,24,09,33,6.60
2010,03,24,09,34,6.60
2010,03,24,09,35,6.70
2010,03,24,09,36,6.80
2010,03,24,09,37,6.90
2010,03,24,09,38,6.90
2010,03,24,09,39,7.00
2010,03,24,09,40,7.00
2010,03,24,09,41,7.10
2010,03,24,09,42,7.20
2010,03,24,09,43,7.20
2010,03,24,09,44,7.20
2010,03,24,09,45,7.30
2010,03,24,09,46,7.40
2010,03,24,09,47,7.40
2010,03,24,09,48,7.50
2010,03,24,09,49,7.50
2010,03,24,09,50,7.60
2010,03,24,09,51,7.60
2010,03,24,09,52,7.60
2010,03,24,09,53,7.70
2010,03,24,09,54,7.80
2010,03,24,09,55,7.80
2010,03,24,09,56,7.90
2010,03,24,09,57,7.90
2010,03,24,09,58,8.00
2010,03,24,09,59,8.10
2010,03,24,10,00,8.10
2010,03,24,10,01,8.10
2010,03,24,10,02,8.10
2010,03,24,10,03,8.10
2010,03,24,10,04,8.20
2010,03,24,10,05,8.20
2010,03,24,10,06,8.20
2010,03,24,10,07,8.20
2010,03,24,10,08,8.20
2010,03,24,10,09,8.20
2010,03,24,10,10,8.20
2010,03,24,10,11,8.20
2010,03,24,10,12,8.20
2010,03,24,10,13,8.30
2010,03,24,10,14,8.30
2010,03,24,10,15,8.30
2010,03,24,10,16,8.40
2010,03,24,10,17,8.40
2010,03,24,10,18,8.40
2010,03,24,10,19,8.50
2010,03,24,10,20,8.50
2010,03,24,10,21,8.50
2010,03,24,10,22,8.60
2010,03,24,10,23,8.60
2010,03,24,10,24,8.60
2010,03,24,10,25,8.60
2010,03,24,10,26,8.70
2010,03,24,10,27,8.70
2010,03,24,10,28,8.80
2010,03,24,10,29,8.80
2010,03,24,10,30,8.80
2010,03,24,10,31,8.80
2010,03,24,10,32,8.90
2010,03,24,10,33,8.90
2010,03,24,10,34,8.90
2010,03,24,10,35,8.90
2010,03,24,10,36,8.90
2010,03,24,10,37,8.90
2010,03,24,10,38,8.90
2010,03,24,10,39,8.90
2010,03,24,10,40,9.00
2010,03,24,10,41,9.00
2010,03,24,10,42,9.10
2010,03,24,10,43,9.10
2010,03,24,10,44,9.10
2010,03,24,10,45,9.20
2010,03,24,10,46,9.20
2010,03,24,10,47,9.20
2010,03,24,10,48,9.30
2010,03,24,10,49,9.30
2010,03,24,10,50,9.40
2010,03,24,10,51,9.40
2010,03,24,10,52,9.40
2010,03,24,10,53,9.50
2010,03,24,10,54,9.50
2010,03,24,10,55,9.60
2010,03,24,10,56,9.60
2010,03,24,10,57,9.60
2010,03,24,10,58,9.60
2010,03,24,10,59,9.70
2010,03,24,11,00,9.70
2010,03,24,11,01,9.70
2010,03,24,11,02,9.80
2010,03,24,11,03,9.80
2010,03,24,11,04,9.80
2010,03,24,11,05,9.80
2010,03,24,11,06,9.90
2010,03,24,11,07,9.90
2010,03,24,11,08,9.90
2010,03,24,11,09,10.00
2010,03,24,11,10,10.00
2010,03,24,11,11,10.00
2010,03,24,11,12,10.10
2010,03,24,11,13,10.10
2010,03,24,11,14,10.10
2010,03,24,11,15,10.10
2010,03,24,11,16,10.10
2010,03,24,11,17,10.10
2010,03,24,11,18,10.10
2010,03,24,11,19,10.10
2010,03,24,11,20,10.10
2010,03,24,11,21,10.20
2010,03,24,11,22,10.20
2010,03,24,11,23,10.20
2010,03,24,11,24,10.20
2010,03,24,11,25,10.20
2010,03,24,11,26,10.20
2010,03,24,11,27,10.30
2010,03,24,11,28,10.30
2010,03,24,11,29,10.30
2010,03,24,11,30,10.30
2010,03,24,11,31,10.30
2010,03,24,11,32,10.30
2010,03,24,11,33,10.30
2010,03,24,11,34,10.40
2010,03,24,11,35,10.50
2010,03,24,11,36,10.60
2010,03,24,11,37,10.70
2010,03,24,11,38,10.70
2010,03,24,11,39,10.80
2010,03,24,11,40,10.80
2010,03,24,11,41,10.80
2010,03,24,11,42,10.80
2010,03,24,11,43,10.80
2010,03,24,11,44,10.80
2010,03,24,11,45,10.80
2010,03,24,11,46,10.80
2010,03,24,11,47,10.80
2010,03,24,11,48,10.80
2010,03,24,11,49,10.80
2010,03,24,11,50,10.80
2010,03,24,11,51,10.90
2010,03,24,11,52,10.90
2010,03,24,11,53,10.90
2010,03,24,11,54,11.00
2010,03,24,11,55,11.00
2010,03,24,11,56,11.00
2010,03,24,11,57,11.10
2010,03,24,11,58,11.10
2010,03,24,11,59,11.10
2010,03,24,12,00,11.20
2010,03,24,12,01,11.20
2010,03,24,12,02,11.20
2010,03,24,12,03,11.20
2010,03,24,12,04,11.20
2010,03,24,12,05,11.20
2010,03,24,12,06,11.20
2010,03,24,12,07,11.30
2010,03,24,12,08,11.30
2010,03,24,12,09,11.30
2010,03,24,12,10,11.30
2010,03,24,12,11,11.40
2010,03,24,12,12,11.50
2010,03,24,12,13,11.60
2010,03,24,12,14,11.70
2010,03,24,12,15,11.70
2010,03,24,12,16,11.80
2010,03,24,12,17,11.80
2010,03,24,12,18,11.80
2010,03,24,12,19,11.80
2010,03,24,12,20,11.80
2010,03,24,12,21,11.80
2010,03,24,12,22,11.80
2010,03,24,12,23,11.80
2010,03,24,12,24,11.80
2010,03,24,12,25,11.80
2010,03,24,12,26,11.80
2010,03,24,12,27,11.90
2010,03,24,12,28,11.90
2010,03,24,12,29,11.90
2010,03,24,12,30,11.90
2010,03,24,12,31,11.90
2010,03,24,12,32,12.00
2010,03,24,12,33,12.00
2010,03,24,12,34,12.10
2010,03,24,12,35,12.10
2010,03,24,12,36,12.10
2010,03,24,12,37,12.20
2010,03,24,12,38,12.20
2010,03,24,12,39,12.30
2010,03,24,12,40,12.30
2010,03,24,12,41,12.40
2010,03,24,12,42,12.40
2010,03,24,12,43,12.30
2010,03,24,12,44,12.30
2010,03,24,12,45,12.30
2010,03,24,12,46,12.30
2010,03,24,12,47,12.30
2010,03,24,12,48,12.40
2010,03,24,12,49,12.40
2010,03,24,12,50,12.40
2010,03,24,12,51,12.50
2010,03,24,12,52,12.50
2010,03,24,12,53,12.50
2010,03,24,12,54,12.50
2010,03,24,12,55,12.40
2010,03,24,12,56,12.40
2010,03,24,12,57,12.40
2010,03,24,12,58,12.40
2010,03,24,12,59,12.40
2010,03,24,13,00,12.40
2010,03,24,13,01,12.40
2010,03,24,13,02,12.40
2010,03,24,13,03,12.40
2010,03,24,13,04,12.40
2010,03,24,13,05,12.50
2010,03,24,13,06,12.50
2010,03,24,13,07,12.60
2010,03,24,13,08,12.60
2010,03,24,13,09,12.60
2010,03,24,13,10,12.70
2010,03,24,13,11,12.80
2010,03,24,13,12,12.80
2010,03,24,13,13,12.80
2010,03,24,13,14,12.70
2010,03,24,13,15,12.70
2010,03,24,13,16,12.80
2010,03,24,13,17,12.80
2010,03,24,13,18,12.80
2010,03,24,13,19,12.80
2010,03,24,13,20,12.90
2010,03,24,13,21,12.90
2010,03,24,13,22,12.90
2010,03,24,13,23,12.90
2010,03,24,13,24,12.90
2010,03,24,13,25,13.00
2010,03,24,13,26,13.00
2010,03,24,13,27,13.00
2010,03,24,13,28,13.00
2010,03,24,13,29,13.00
2010,03,24,13,30,13.00
2010,03,24,13,31,13.10
2010,03,24,13,32,13.20
2010,03,24,13,33,13.30
2010,03,24,13,34,13.40
2010,03,24,13,35,13.60
2010,03,24,13,36,13.70
2010,03,24,13,37,13.70
2010,03,24,13,38,13.70
2010,03,24,13,39,13.70
2010,03,24,13,40,13.80
2010,03,24,13,41,13.80
2010,03,24,13,42,13.90
2010,03,24,13,43,14.00
2010,03,24,13,44,14.00
2010,03,24,13,45,14.10
2010,03,24,13,46,14.20
2010,03,24,13,47,14.20
2010,03,24,13,48,14.20
2010,03,24,13,49,14.30
2010,03,24,13,50,14.50
2010,03,24,13,51,14.60
2010,03,24,13,52,14.70
2010,03,24,13,53,14.80
2010,03,24,13,54,14.90
2010,03,24,13,55,15.00
2010,03,24,13,56,15.00
2010,03,24,13,57,15.00
2010,03,24,13,58,15.00
2010,03,24,13,59,14.90
2010,03,24,14,00,14.70
2010,03,24,14,01,14.50
2010,03,24,14,02,14.30
2010,03,24,14,03,14.10
2010,03,24,14,04,14.00
2010,03,24,14,05,14.00
2010,03,24,14,06,14.10
2010,03,24,14,07,14.20
2010,03,24,14,08,14.30
2010,03,24,14,09,14.20
2010,03,24,14,10,14.20
2010,03,24,14,11,14.10
2010,03,24,14,12,14.10
2010,03,24,14,13,14.10
2010,03,24,14,14,14.10
2010,03,24,14,15,14.10
2010,03,24,14,16,14.10
2010,03,24,14,17,14.20
2010,03,24,14,18,14.30
2010,03,24,14,19,14.30
2010,03,24,14,20,14.20
2010,03,24,14,21,14.20
2010,03,24,14,22,14.20
2010,03,24,14,23,14.30
2010,03,24,14,24,14.30
2010,03,24,14,25,14.40
2010,03,24,14,26,14.40
2010,03,24,14,27,14.40
2010,03,24,14,28,14.30
2010,03,24,14,29,14.30
2010,03,24,14,30,14.20
2010,03,24,14,31,14.20
2010,03,24,14,32,14.30
2010,03,24,14,33,14.40
2010,03,24,14,34,14.50
2010,03,24,14,35,14.60
2010,03,24,14,36,14.60
2010,03,24,14,37,14.70
2010,03,24,14,38,14.70
2010,03,24,14,39,14.70
2010,03,24,14,40,14.80
2010,03,24,14,41,14.90
2010,03,24,14,42,15.00
2010,03,24,14,43,15.00
2010,03,24,14,44,15.00
2010,03,24,14,45,15.00
2010,03,24,14,46,15.00
2010,03,24,14,47,14.90
2010,03,24,14,48,14.90
2010,03,24,14,49,14.90
2010,03,24,14,50,14.90
2010,03,24,14,51,15.00
2010,03,24,14,52,15.00
2010,03,24,14,53,15.10
2010,03,24,14,54,15.20
2010,03,24,14,55,15.30
2010,03,24,14,56,15.50
2010,03,24,14,57,15.50
2010,03,24,14,58,15.50
2010,03,24,14,59,15.40
2010,03,24,15,00,15.30
2010,03,24,15,01,15.30
2010,03,24,15,02,15.40
2010,03,24,15,03,15.40
2010,03,24,15,04,15.50
2010,03,24,15,05,15.70
2010,03,24,15,06,15.80
2010,03,24,15,07,15.80
2010,03,24,15,08,15.80
2010,03,24,15,09,15.80
2010,03,24,15,10,15.80
2010,03,24,15,11,15.80
2010,03,24,15,12,15.80
2010,03,24,15,13,15.80
2010,03,24,15,14,15.80
2010,03,24,15,15,15.70
2010,03,24,15,16,15.60
2010,03,24,15,17,15.50
2010,03,24,15,18,15.40
2010,03,24,15,19,15.40
2010,03,24,15,20,15.40
2010,03,24,15,21,15.40
2010,03,24,15,22,15.40
2010,03,24,15,23,15.40
2010,03,24,15,24,15.40
2010,03,24,15,25,15.40
2010,03,24,15,26,15.30
2010,03,24,15,27,15.30
2010,03,24,15,28,15.30
2010,03,24,15,29,15.20
2010,03,24,15,30,15.20
2010,03,24,15,31,15.10
2010,03,24,15,32,15.10
2010,03,24,15,33,15.10
2010,03,24,15,34,15.10
2010,03,24,15,35,15.10
2010,03,24,15,36,15.20
2010,03,24,15,37,15.20
2010,03,24,15,38,15.30
2010,03,24,15,39,15.20
2010,03,24,15,40,15.20
2010,03,24,15,41,15.10
2010,03,24,15,42,15.10
2010,03,24,15,43,15.00
2010,03,24,15,44,15.00
2010,03,24,15,45,15.00
2010,03,24,15,46,15.00
2010,03,24,15,47,15.00
2010,03,24,15,48,15.00
2010,03,24,15,49,15.00
2010,03,24,15,50,14.90
2010,03,24,15,51,14.70
2010,03,24,15,52,14.60
2010,03,24,15,53,14.60
2010,03,24,15,54,14.50
2010,03,24,15,55,14.50
2010,03,24,15,56,14.50
2010,03,24,15,57,14.40
2010,03,24,15,58,14.40
2010,03,24,15,59,14.40
2010,03,24,16,00,14.30
2010,03,24,16,01,14.30
2010,03,24,16,02,14.30
2010,03,24,16,03,14.30
2010,03,24,16,04,14.20
2010,03,24,16,05,14.20
2010,03,24,16,06,14.20
2010,03,24,16,07,14.20
2010,03,24,16,08,14.10
2010,03,24,16,09,14.10
2010,03,24,16,10,14.10
2010,03,24,16,11,14.00
2010,03,24,16,12,14.00
2010,03,24,16,13,13.90
2010,03,24,16,14,13.80
2010,03,24,16,15,13.80
2010,03,24,16,16,13.80
2010,03,24,16,17,13.80
2010,03,24,16,18,13.80
2010,03,24,16,19,13.80
2010,03,24,16,20,13.80
2010,03,24,16,21,13.80
2010,03,24,16,22,13.80
2010,03,24,16,23,13.80
2010,03,24,16,24,13.70
2010,03,24,16,25,13.70
2010,03,24,16,26,13.70
2010,03,24,16,27,13.70
2010,03,24,16,28,13.60
2010,03,24,16,29,13.60
2010,03,24,16,30,13.60
2010,03,24,16,31,13.60
2010,03,24,16,32,13.50
2010,03,24,16,33,13.50
2010,03,24,16,34,13.50
2010,03,24,16,35,13.50
2010,03,24,16,36,13.50
2010,03,24,16,37,13.50
2010,03,24,16,38,13.60
2010,03,24,16,39,13.60
2010,03,24,16,40,13.60
2010,03,24,16,41,13.60
2010,03,24,16,42,13.70
2010,03,24,16,43,13.70
2010,03,24,16,44,13.60
2010,03,24,16,45,13.60
2010,03,24,16,46,13.60
2010,03,24,16,47,13.60
2010,03,24,16,48,13.60
2010,03,24,16,49,13.60
2010,03,24,16,50,13.70
2010,03,24,16,51,13.70
2010,03,24,16,52,13.70
2010,03,24,16,53,13.70
2010,03,24,16,54,13.70
2010,03,24,16,55,13.70
2010,03,24,16,56,13.70
2010,03,24,16,57,13.70
2010,03,24,16,58,13.70
2010,03,24,16,59,13.70
2010,03,24,17,00,13.70
2010,03,24,17,01,13.80
2010,03,24,17,02,13.80
2010,03,24,17,03,13.80
2010,03,24,17,04,13.90
2010,03,24,17,05,13.90
2010,03,24,17,06,13.90
2010,03,24,17,07,13.90
2010,03,24,17,08,13.90
2010,03,24,17,09,13.90
2010,03,24,17,10,13.90
2010,03,24,17,11,14.00
2010,03,24,17,12,14.00
2010,03,24,17,13,14.00
2010,03,24,17,14,14.10
2010,03,24,17,15,14.00
2010,03,24,17,16,14.00
2010,03,24,17,17,14.00
2010,03,24,17,18,13.90
2010,03,24,17,19,13.80
2010,03,24,17,20,13.80
2010,03,24,17,21,13.80
2010,03,24,17,22,13.70
2010,03,24,17,23,13.70
2010,03,24,17,24,13.70
2010,03,24,17,25,13.60
2010,03,24,17,26,13.60
2010,03,24,17,27,13.60
2010,03,24,17,28,13.60
2010,03,24,17,29,13.60
2010,03,24,17,30,13.60
2010,03,24,17,31,13.50
2010,03,24,17,32,13.50
2010,03,24,17,33,13.50
2010,03,24,17,34,13.40
2010,03,24,17,35,13.40
2010,03,24,17,36,13.40
2010,03,24,17,37,13.40
2010,03,24,17,38,13.40
2010,03,24,17,39,13.40
2010,03,24,17,40,13.40
2010,03,24,17,41,13.40
2010,03,24,17,42,13.40
2010,03,24,17,43,13.40
2010,03,24,17,44,13.30
2010,03,24,17,45,13.30
2010,03,24,17,46,13.30
2010,03,24,17,47,13.30
2010,03,24,17,48,13.20
2010,03,24,17,49,13.20
2010,03,24,17,50,13.20